This is the latest recevied weather packets stored in our database for station/object W1RCY. If no packets are shown the sender has not sent any weather packets the latest 10 day(s).
| Time | Temp. | Humidity | Pressure | Rain* | Wind** | Luminosity | Snow |
|---|---|---|---|---|---|---|---|
| 1777155068 | 10° C | 50% | 1014.9 hPa | 0 mm | - | 72 W/m² | - |
| 1777154765 | 10.56° C | 49% | 1015 hPa | 0 mm | - | 89 W/m² | - |
| 1777154461 | 10.56° C | 48% | 1015 hPa | 0 mm | - | 96 W/m² | - |
| 1777154156 | 11.11° C | 48% | 1014.9 hPa | 0 mm | - | 100 W/m² | - |
| 1777153853 | 10.56° C | 48% | 1014.9 hPa | 0 mm | - | 132 W/m² | - |
| 1777153550 | 11.11° C | 48% | 1014.6 hPa | 0 mm | - | 105 W/m² | - |
| 1777153245 | 11.67° C | 48% | 1014.6 hPa | 0 mm | - | 130 W/m² | - |
| 1777152942 | 11.67° C | 47% | 1014.8 hPa | 0 mm | - | 156 W/m² | - |
| 1777152639 | 11.11° C | 47% | 1014.8 hPa | 0 mm | - | 129 W/m² | - |
| 1777152336 | 10.56° C | 48% | 1014.8 hPa | 0 mm | - | 128 W/m² | - |
| 1777152030 | 11.11° C | 47% | 1014.9 hPa | 0 mm | - | 170 W/m² | - |
| 1777151726 | 10.56° C | 48% | 1014.7 hPa | 0 mm | - | 209 W/m² | - |
| 1777151423 | 11.11° C | 47% | 1014.9 hPa | 0 mm | - | 172 W/m² | - |
| 1777151119 | 11.11° C | 47% | 1014.9 hPa | 0 mm | - | 186 W/m² | - |
| 1777150814 | 11.11° C | 46% | 1014.5 hPa | 0 mm | - | 158 W/m² | - |
| 1777150509 | 11.11° C | 47% | 1014.5 hPa | 0 mm | - | 177 W/m² | - |
| 1777150205 | 11.67° C | 46% | 1014.7 hPa | 0 mm | - | 178 W/m² | - |
| 1777149904 | 11.67° C | 45% | 1014.5 hPa | 0 mm | - | 142 W/m² | - |
| 1777149599 | 12.22° C | 45% | 1014.5 hPa | 0 mm | - | 210 W/m² | - |
| 1777149296 | 12.22° C | 45% | 1014.3 hPa | 0 mm | - | 204 W/m² | - |
| 1777148996 | 11.67° C | 46% | 1014.4 hPa | 0 mm | - | 281 W/m² | - |
| 1777148691 | 11.67° C | 45% | 1014.7 hPa | 0 mm | - | 305 W/m² | - |
| 1777148387 | 12.22° C | 45% | 1014.4 hPa | 0 mm | - | 363 W/m² | - |
| 1777148084 | 12.22° C | 45% | 1014.4 hPa | 0 mm | - | 379 W/m² | - |
| 1777147780 | 14.44° C | 41% | 1014.2 hPa | 0 mm | - | 353 W/m² | - |
* Rain latest hour (hover to see other rain measurements)
** Current wind speed in m/s (hover to see current wind gust speed)